MST,Max TemperatureF,Mean TemperatureF,Min TemperatureF,Max Dew PointF,MeanDew PointF,Min DewpointF,Max Humidity, Mean Humidity, Min Humidity, Max Sea Level PressureIn, Mean Sea Level PressureIn, Min Sea Level PressureIn, Max VisibilityMiles, Mean VisibilityMiles, Min VisibilityMiles, Max Wind SpeedMPH, Mean Wind SpeedMPH, Max Gust SpeedMPH,PrecipitationIn, CloudCover, Events, WindDirDegrees
2012-11-1,49,40,31,40,36,30,100,86,71,30.06,29.95,29.83,10,3,0,17,10,20,0.00,4,Fog,108
2012-11-2,59,45,31,41,34,30,100,70,40,30.19,30.02,29.85,10,4,0,23,10,26,0.00,5,Fog,4
2012-11-3,55,39,22,37,30,21,100,73,45,30.24,30.18,30.13,10,9,1,13,5,15,0.00,1,,103
2012-11-4,60,45,30,37,33,30,100,70,40,30.28,30.16,30.09,10,10,10,36,12,49,0.05,3,,338
2012-11-5,58,41,24,43,35,25,96,72,47,30.26,30.11,29.98,10,10,10,29,6,35,0.01,3,Rain,60
2012-11-6,57,45,32,36,27,22,82,54,25,30.25,30.18,30.10,10,10,10,18,9,24,0.00,0,,327
2012-11-7,75,52,29,35,28,23,78,49,19,30.10,29.86,29.71,10,10,10,30,7,38,0.00,0,,98
2012-11-8,50,40,30,35,29,26,92,69,46,30.05,29.98,29.80,10,10,10,35,14,41,0.00,2,,36
2012-11-9,34,32,30,34,32,28,100,96,92,29.95,29.80,29.63,10,2,0,20,12,23,0.02,8,Fog,126
2012-11-10,33,22,11,32,23,5,100,84,67,30.03,29.71,29.60,10,3,0,44,21,49,0.18,7,Fog-Snow,350
2012-11-11,24,15,5,12,7,1,83,70,57,30.23,30.13,29.94,10,10,10,25,10,29,0.00,1,,337
2012-11-12,38,23,8,23,14,2,81,64,47,30.34,30.28,30.22,10,10,10,10,3,12,0.00,0,,232
2012-11-13,51,36,20,30,24,17,85,63,41,30.30,30.26,30.21,10,10,10,15,4,17,0.00,2,,334
2012-11-14,48,35,21,32,26,17,85,67,49,30.23,30.17,30.06,10,10,10,15,5,17,0.00,0,,311
2012-11-15,48,37,25,29,25,22,85,66,46,30.45,30.37,30.26,10,10,10,15,7,17,0.00,0,,177
2012-11-16,64,45,26,32,27,23,85,55,24,30.25,30.07,29.97,10,10,10,16,7,20,0.00,0,,166
2012-11-17,61,46,30,28,26,24,78,53,27,30.06,30.00,29.94,10,10,10,16,5,20,0.00,1,,352
2012-11-18,67,48,28,36,30,24,78,52,26,29.99,29.88,29.75,10,10,10,24,9,30,0.00,0,,239
2012-11-19,55,42,29,30,23,18,64,47,29,30.19,30.13,30.00,10,10,10,20,7,24,0.00,0,,160
2012-11-20,67,49,30,33,28,27,78,51,24,30.06,30.00,29.89,10,10,10,9,3,10,0.00,0,,113
2012-11-21,66,53,40,34,28,23,65,43,20,29.88,29.75,29.63,10,10,10,31,10,40,0.00,0,,198
2012-11-22,49,34,19,34,22,10,79,54,28,30.55,30.17,29.75,10,10,10,41,24,51,0.00,3,,331
2012-11-23,39,25,11,17,14,8,92,66,40,30.63,30.45,30.12,10,10,10,22,5,26,0.00,0,,138
2012-11-24,61,42,22,32,24,18,75,48,20,30.08,29.98,29.89,10,10,10,29,9,36,0.00,4,,344
2012-11-25,41,34,26,34,30,24,100,88,75,30.28,30.06,29.95,10,4,1,15,6,20,0.19,8,Snow,44
2012-11-26,27,21,15,25,21,12,96,90,84,30.48,30.35,30.18,10,5,0,13,5,15,T,5,Fog-Snow,121
2012-11-27,37,25,13,28,18,10,88,73,58,30.32,30.25,30.20,10,10,10,14,3,14,0.00,0,,301
2012-11-28,48,32,16,35,22,13,92,78,64,30.27,30.13,29.95,10,10,10,6,1,12,0.00,0,,136
2012-11-29,47,35,22,29,24,18,92,69,45,30.08,29.98,29.91,10,10,10,23,6,26,0.00,0,,40
2012-11-30,63,44,25,35,30,23,92,60,27,30.02,29.82,29.64,10,10,10,23,9,29,0.00,0,,166